CCA1146 ZBYN-ZBAA

Flight info

Callsign CCA1146
Flight time 0h 52m
Altitude 22600
Route TONOV9ZD TONOV G212 AMVOG W61 NUDKU W56 DUGEB DUGEB5D
Aircraft A320/M-SDE3FGHIRWY/LB1

Departure

Time 2026-05-07 14:27
Airport Taiyuan Wusu International Airport (ZBYN)

Arrival

Time 2026-05-07 15:19
Airport Beijing Capital International Airport (ZBAA)
Time Latitude Longitude Altitude Speed Heading
2026-05-07 14:27 37.85003 112.27662 11966 ft 360 kts 219°
2026-05-07 14:27 37.82991 112.25779 12012 ft 361 kts 219°
2026-05-07 14:27 37.80872 112.24043 12215 ft 368 kts 206°
2026-05-07 14:27 37.78392 112.23150 13059 ft 374 kts 188°
2026-05-07 14:28 37.75772 112.23265 13849 ft 381 kts 168°
2026-05-07 14:28 37.73310 112.24509 14507 ft 386 kts 146°
2026-05-07 14:28 37.72599 112.25151 14716 ft 387 kts 139°
2026-05-07 14:28 37.70356 112.28590 15539 ft 389 kts 121°
2026-05-07 14:29 37.68739 112.31363 16160 ft 395 kts 127°
2026-05-07 14:29 37.66939 112.34029 16781 ft 401 kts 130°
2026-05-07 14:29 37.65053 112.36639 17399 ft 406 kts 131°
2026-05-07 14:29 37.63125 112.39283 18015 ft 411 kts 131°
2026-05-07 14:30 37.61233 112.41965 18604 ft 416 kts 127°
2026-05-07 14:30 37.59693 112.45042 19092 ft 417 kts 112°
2026-05-07 14:30 37.58737 112.48549 19622 ft 417 kts 98°
2026-05-07 14:30 37.58433 112.52116 20099 ft 415 kts 85°
2026-05-07 14:31 37.58726 112.55740 20636 ft 412 kts 72°
2026-05-07 14:31 37.59591 112.59165 21154 ft 407 kts 59°
2026-05-07 14:31 37.60856 112.62358 21674 ft 409 kts 56°
2026-05-07 14:31 37.62155 112.65568 22180 ft 413 kts 56°
2026-05-07 14:32 37.63466 112.68828 22666 ft 417 kts 56°
2026-05-07 14:32 37.64777 112.72108 22822 ft 420 kts 57°
2026-05-07 14:32 37.66109 112.75446 22852 ft 434 kts 57°
2026-05-07 14:32 37.67473 112.78855 22855 ft 448 kts 57°
2026-05-07 14:33 37.68888 112.82396 22850 ft 453 kts 57°
2026-05-07 14:33 37.70308 112.85967 22850 ft 455 kts 57°
2026-05-07 14:33 37.71724 112.89539 22851 ft 455 kts 57°
2026-05-07 14:33 37.73143 112.93127 22868 ft 455 kts 57°
2026-05-07 14:34 37.74552 112.96696 22853 ft 454 kts 57°
2026-05-07 14:34 37.75963 113.00266 22854 ft 453 kts 57°
2026-05-07 14:34 37.77373 113.03824 22857 ft 453 kts 57°
2026-05-07 14:34 37.78788 113.07395 22857 ft 454 kts 57°
2026-05-07 14:35 37.80203 113.10967 22864 ft 454 kts 57°
2026-05-07 14:35 37.81615 113.14537 22865 ft 454 kts 57°
2026-05-07 14:35 37.83028 113.18112 22857 ft 454 kts 57°
2026-05-07 14:35 37.84434 113.21679 22851 ft 454 kts 57°
2026-05-07 14:36 37.85836 113.25248 22844 ft 454 kts 57°
2026-05-07 14:36 37.86659 113.27344 22843 ft 454 kts 57°
2026-05-07 14:36 37.88067 113.30933 22854 ft 453 kts 57°
2026-05-07 14:36 37.89454 113.34465 22853 ft 454 kts 57°
2026-05-07 14:37 37.90855 113.38042 22846 ft 454 kts 57°
2026-05-07 14:37 37.93661 113.45209 22860 ft 453 kts 57°
2026-05-07 14:37 37.95059 113.48790 22859 ft 453 kts 57°
2026-05-07 14:38 37.96457 113.52372 22844 ft 453 kts 57°
2026-05-07 14:38 37.97850 113.55950 22839 ft 453 kts 57°
2026-05-07 14:38 37.99242 113.59534 22838 ft 453 kts 57°
2026-05-07 14:38 38.00633 113.63120 22828 ft 453 kts 57°
2026-05-07 14:39 38.02020 113.66703 22839 ft 453 kts 57°
2026-05-07 14:39 38.03408 113.70296 22836 ft 452 kts 57°
2026-05-07 14:39 38.04773 113.73832 22836 ft 452 kts 57°
2026-05-07 14:39 38.06151 113.77407 22836 ft 452 kts 57°
2026-05-07 14:40 38.07528 113.80986 22828 ft 451 kts 57°
2026-05-07 14:40 38.08902 113.84562 22820 ft 451 kts 57°
2026-05-07 14:40 38.10276 113.88142 22800 ft 451 kts 57°
2026-05-07 14:40 38.11651 113.91726 22790 ft 450 kts 57°
2026-05-07 14:41 38.13023 113.95309 22785 ft 450 kts 57°
2026-05-07 14:41 38.14393 113.98890 22779 ft 450 kts 57°
2026-05-07 14:41 38.15767 114.02477 22787 ft 450 kts 57°
2026-05-07 14:41 38.17134 114.06058 22780 ft 450 kts 57°
2026-05-07 14:42 38.18481 114.09592 22789 ft 450 kts 57°
2026-05-07 14:42 38.19847 114.13177 22783 ft 450 kts 57°
2026-05-07 14:42 38.21219 114.16766 22772 ft 450 kts 57°
2026-05-07 14:42 38.22589 114.20342 22763 ft 450 kts 57°
2026-05-07 14:43 38.23966 114.23926 22770 ft 450 kts 57°
2026-05-07 14:43 38.25333 114.27499 22749 ft 450 kts 57°
2026-05-07 14:43 38.26700 114.31089 22748 ft 450 kts 57°
2026-05-07 14:43 38.28062 114.34675 22753 ft 450 kts 57°
2026-05-07 14:44 38.29430 114.38273 22784 ft 450 kts 57°
2026-05-07 14:44 38.30796 114.41858 22806 ft 450 kts 56°
2026-05-07 14:44 38.32160 114.45446 22805 ft 449 kts 56°
2026-05-07 14:44 38.33519 114.49028 22803 ft 449 kts 56°
2026-05-07 14:45 38.34875 114.52610 22800 ft 449 kts 57°
2026-05-07 14:45 38.36225 114.56186 22798 ft 449 kts 57°
2026-05-07 14:45 38.37577 114.59768 22796 ft 448 kts 57°
2026-05-07 14:45 38.38926 114.63347 22792 ft 448 kts 57°
2026-05-07 14:46 38.40257 114.66947 22790 ft 451 kts 60°
2026-05-07 14:46 38.41187 114.70811 22784 ft 463 kts 72°
2026-05-07 14:46 38.41477 114.74935 22780 ft 474 kts 85°
2026-05-07 14:46 38.41074 114.79146 22776 ft 483 kts 97°
2026-05-07 14:47 38.40311 114.83332 22773 ft 484 kts 98°
2026-05-07 14:47 38.39555 114.87463 22770 ft 484 kts 98°
2026-05-07 14:47 38.38787 114.91640 22768 ft 485 kts 98°
2026-05-07 14:47 38.38014 114.95834 22767 ft 485 kts 98°
2026-05-07 14:48 38.37242 115.00018 22764 ft 485 kts 98°
2026-05-07 14:48 38.36471 115.04205 22774 ft 485 kts 98°
2026-05-07 14:48 38.35698 115.08411 22771 ft 485 kts 98°
2026-05-07 14:48 38.34927 115.12602 22768 ft 485 kts 98°
2026-05-07 14:49 38.34150 115.16779 22766 ft 485 kts 98°
2026-05-07 14:49 38.33377 115.20907 22765 ft 485 kts 98°
2026-05-07 14:49 38.32590 115.25102 22763 ft 485 kts 98°
2026-05-07 14:49 38.31804 115.29296 22764 ft 485 kts 98°
2026-05-07 14:50 38.31023 115.33472 22778 ft 485 kts 98°
2026-05-07 14:50 38.30237 115.37659 22776 ft 485 kts 98°
2026-05-07 14:50 38.29454 115.41839 22775 ft 485 kts 98°
2026-05-07 14:50 38.28929 115.46031 22769 ft 475 kts 85°
2026-05-07 14:51 38.29202 115.50149 22768 ft 461 kts 70°
2026-05-07 14:51 38.30220 115.53889 22763 ft 446 kts 56°
2026-05-07 14:51 38.31875 115.57157 22763 ft 432 kts 42°
2026-05-07 14:51 38.34011 115.59764 22759 ft 418 kts 29°
2026-05-07 14:52 38.36472 115.61628 22752 ft 408 kts 19°
2026-05-07 14:52 38.39034 115.63207 22749 ft 408 kts 19°
2026-05-07 14:52 38.41583 115.64798 22774 ft 409 kts 19°
2026-05-07 14:52 38.44124 115.66403 22790 ft 409 kts 19°
2026-05-07 14:53 38.46668 115.68018 22785 ft 408 kts 19°
2026-05-07 14:53 38.49192 115.69626 22277 ft 401 kts 19°
2026-05-07 14:53 38.51671 115.71201 21719 ft 400 kts 20°
2026-05-07 14:53 38.54180 115.72785 21538 ft 401 kts 20°
2026-05-07 14:54 38.56682 115.74356 21563 ft 402 kts 20°
2026-05-07 14:54 38.59159 115.75917 21567 ft 402 kts 20°
2026-05-07 14:54 38.61659 115.77499 21460 ft 399 kts 20°
2026-05-07 14:54 38.64128 115.79070 20765 ft 394 kts 20°
2026-05-07 14:55 38.66522 115.80802 20050 ft 397 kts 29°
2026-05-07 14:55 38.68675 115.83033 19355 ft 398 kts 34°
2026-05-07 14:55 38.70783 115.85301 18690 ft 395 kts 34°
2026-05-07 14:55 38.72882 115.87557 18066 ft 393 kts 35°
2026-05-07 14:56 38.74973 115.89807 17851 ft 394 kts 35°
2026-05-07 14:56 38.77072 115.92067 17863 ft 394 kts 35°
2026-05-07 14:56 38.79174 115.94333 17859 ft 394 kts 35°
2026-05-07 14:56 38.81243 115.96576 17677 ft 379 kts 35°
2026-05-07 14:57 38.83188 115.98691 17546 ft 363 kts 35°
2026-05-07 14:57 38.85087 116.00754 17192 ft 355 kts 35°
2026-05-07 14:57 38.86963 116.02785 16706 ft 351 kts 35°
2026-05-07 14:57 38.88823 116.04790 16201 ft 348 kts 35°
2026-05-07 14:58 38.90671 116.06780 15898 ft 347 kts 35°
2026-05-07 14:58 38.92526 116.08777 15850 ft 348 kts 35°
2026-05-07 14:58 38.94381 116.10778 15860 ft 348 kts 35°
2026-05-07 14:58 38.96229 116.12780 15861 ft 348 kts 35°
2026-05-07 14:59 38.98081 116.14789 15860 ft 348 kts 35°
2026-05-07 14:59 38.99947 116.16769 15860 ft 346 kts 31°
2026-05-07 14:59 39.02015 116.18293 15861 ft 340 kts 19°
2026-05-07 14:59 39.04262 116.19179 15860 ft 336 kts
2026-05-07 15:00 39.06561 116.19434 15539 ft 329 kts 356°
2026-05-07 15:00 39.08803 116.19155 15012 ft 326 kts 352°
2026-05-07 15:00 39.11053 116.18804 14492 ft 325 kts 352°
2026-05-07 15:00 39.13293 116.18459 13981 ft 323 kts 352°
2026-05-07 15:01 39.15521 116.18118 13422 ft 322 kts 352°
2026-05-07 15:01 39.17744 116.17786 12859 ft 321 kts 352°
2026-05-07 15:01 39.19952 116.17456 12316 ft 319 kts 352°
2026-05-07 15:01 39.22147 116.17127 11776 ft 317 kts 352°
2026-05-07 15:02 39.24336 116.16797 11250 ft 315 kts 352°
2026-05-07 15:02 39.26509 116.16467 10734 ft 313 kts 352°
2026-05-07 15:02 39.28675 116.16135 10553 ft 314 kts 352°
2026-05-07 15:02 39.30855 116.15804 10550 ft 315 kts 352°
2026-05-07 15:03 39.33032 116.15473 10556 ft 315 kts 352°
2026-05-07 15:03 39.35185 116.15148 10557 ft 315 kts 352°
2026-05-07 15:03 39.37368 116.14817 10555 ft 315 kts 352°
2026-05-07 15:03 39.39546 116.14482 10551 ft 315 kts 352°
2026-05-07 15:04 39.41678 116.14442 10543 ft 300 kts
2026-05-07 15:04 39.43547 116.15462 10547 ft 288 kts 33°
2026-05-07 15:04 39.44871 116.17363 10548 ft 288 kts 57°
2026-05-07 15:04 39.45469 116.19859 10552 ft 295 kts 78°
2026-05-07 15:05 39.45719 116.22490 10364 ft 293 kts 79°
2026-05-07 15:05 39.45964 116.25111 9981 ft 292 kts 79°
2026-05-07 15:05 39.46205 116.27709 9602 ft 291 kts 79°
2026-05-07 15:05 39.46451 116.30304 9210 ft 289 kts 79°
2026-05-07 15:06 39.46697 116.32868 8817 ft 287 kts 79°
2026-05-07 15:06 39.46945 116.35429 8424 ft 286 kts 79°
2026-05-07 15:06 39.47191 116.37974 8034 ft 284 kts 79°
2026-05-07 15:06 39.47434 116.40505 7781 ft 282 kts 78°
2026-05-07 15:07 39.47934 116.42897 7751 ft 277 kts 62°
2026-05-07 15:07 39.48955 116.44948 7669 ft 270 kts 44°
2026-05-07 15:07 39.50397 116.46505 7513 ft 270 kts 27°
2026-05-07 15:07 39.52100 116.47492 7300 ft 267 kts 19°
2026-05-07 15:08 39.53833 116.48382 7059 ft 267 kts 19°
2026-05-07 15:08 39.55561 116.49282 6807 ft 267 kts 19°
2026-05-07 15:08 39.57255 116.50171 6572 ft 266 kts 19°
2026-05-07 15:08 39.58967 116.51071 6320 ft 265 kts 20°
2026-05-07 15:09 39.60672 116.51969 6075 ft 264 kts 20°
2026-05-07 15:09 39.62379 116.52865 5833 ft 263 kts 20°
2026-05-07 15:09 39.64074 116.53752 5593 ft 262 kts 20°
2026-05-07 15:09 39.65747 116.54629 5404 ft 253 kts 20°
2026-05-07 15:10 39.66830 116.55198 5319 ft 244 kts 20°
2026-05-07 15:10 39.68363 116.56005 5199 ft 231 kts 20°
2026-05-07 15:10 39.69783 116.56751 4945 ft 218 kts 20°
2026-05-07 15:10 39.71165 116.57475 4586 ft 212 kts 20°
2026-05-07 15:11 39.72522 116.58187 4232 ft 209 kts 20°
2026-05-07 15:11 39.73869 116.58892 3884 ft 208 kts 20°
2026-05-07 15:11 39.75214 116.59598 3785 ft 207 kts 20°
2026-05-07 15:11 39.76554 116.60301 3784 ft 208 kts 20°
2026-05-07 15:12 39.77899 116.61008 3790 ft 208 kts 20°
2026-05-07 15:12 39.79235 116.61715 3788 ft 202 kts 20°
2026-05-07 15:12 39.80496 116.62383 3778 ft 189 kts 20°
2026-05-07 15:12 39.81678 116.63005 3777 ft 183 kts 19°
2026-05-07 15:13 39.82891 116.63464 3781 ft 181 kts 360°
2026-05-07 15:13 39.84151 116.63347 3787 ft 182 kts 353°
2026-05-07 15:13 39.85415 116.63164 3790 ft 182 kts 353°
2026-05-07 15:13 39.86665 116.62973 3740 ft 177 kts 353°
2026-05-07 15:14 39.87859 116.62788 3552 ft 169 kts 353°
2026-05-07 15:14 39.89011 116.62608 3347 ft 165 kts 353°
2026-05-07 15:14 39.90117 116.62436 3163 ft 153 kts 352°
2026-05-07 15:14 39.91139 116.62276 2939 ft 142 kts 352°
2026-05-07 15:15 39.92072 116.62130 2764 ft 134 kts 352°
2026-05-07 15:15 39.92988 116.61987 2586 ft 131 kts 352°
2026-05-07 15:15 39.93888 116.61845 2417 ft 130 kts 352°
2026-05-07 15:15 39.94774 116.61707 2248 ft 129 kts 352°
2026-05-07 15:16 39.95665 116.61567 2075 ft 129 kts 352°
2026-05-07 15:16 39.96554 116.61428 1902 ft 129 kts 352°
2026-05-07 15:16 39.97442 116.61289 1731 ft 129 kts 352°
2026-05-07 15:16 39.98336 116.61148 1549 ft 129 kts 352°
2026-05-07 15:17 39.99233 116.61008 1382 ft 130 kts 352°
2026-05-07 15:17 40.00130 116.60867 1211 ft 130 kts 352°
2026-05-07 15:17 40.01035 116.60725 1039 ft 131 kts 352°
2026-05-07 15:17 40.01938 116.60584 859 ft 131 kts 352°
2026-05-07 15:18 40.02847 116.60441 689 ft 132 kts 352°
2026-05-07 15:18 40.03764 116.60298 494 ft 133 kts 352°
2026-05-07 15:18 40.04679 116.60161 302 ft 133 kts 351°
2026-05-07 15:18 40.05590 116.60015 179 ft 130 kts 351°
2026-05-07 15:19 40.06470 116.59878 121 ft 120 kts 353°
2026-05-07 15:19 40.07133 116.59765 125 ft 73 kts 354°
2026-05-07 15:19 40.07459 116.59716 123 ft 21 kts 353°
2026-05-07 15:19 40.07588 116.59715 122 ft 12 kts
2026-05-07 15:20 40.07674 116.59737 121 ft 12 kts 17°
2026-05-07 15:20 40.07752 116.59774 123 ft 11 kts 22°
2026-05-07 15:20 40.07818 116.59811 121 ft 9 kts 26°
2026-05-07 15:20 40.07873 116.59844 121 ft 8 kts 22°
2026-05-07 15:21 40.07922 116.59865 123 ft 7 kts 15°
2026-05-07 15:21 40.07988 116.59912 120 ft 12 kts 75°
2026-05-07 15:21 40.07936 116.59991 123 ft 12 kts 164°
2026-05-07 15:21 40.07856 116.60004 121 ft 11 kts 173°
2026-05-07 15:22 40.07781 116.60015 121 ft 11 kts 173°
2026-05-07 15:22 40.07710 116.60026 123 ft 10 kts 172°
2026-05-07 15:22 40.07648 116.60043 121 ft 9 kts 157°
2026-05-07 15:22 40.07623 116.60102 124 ft 7 kts 102°
2026-05-07 15:23 40.07607 116.60162 125 ft 7 kts 112°
2026-05-07 15:23 40.07586 116.60213 120 ft 7 kts 122°
2026-05-07 15:23 40.07534 116.60286 123 ft 12 kts 144°
2026-05-07 15:23 40.07463 116.60328 121 ft 11 kts 165°
2026-05-07 15:24 40.07392 116.60342 123 ft 10 kts 173°
2026-05-07 15:24 40.07329 116.60351 121 ft 9 kts 173°
2026-05-07 15:24 40.07270 116.60361 120 ft 8 kts 172°
2026-05-07 15:24 40.07218 116.60375 122 ft 7 kts 152°
2026-05-07 15:25 40.07206 116.60426 122 ft 6 kts 81°
2026-05-07 15:25 40.07211 116.60473 122 ft 4 kts 82°
2026-05-07 15:25 40.07214 116.60504 122 ft 3 kts 83°
2026-05-07 15:25 40.07214 116.60506 122 ft 0 kts 83°